Lid_Strength_Index
5 5 5 5 5 6 6 7 7 7 7 7 7 7 7 7 7 9 8 7 7 9 9 9 9 11 11 12 13 14 14 14 15 17 17 16 17 15 17 18 19 19 21 22 22 22 19 16 17 17 15 16 16 16
4 5 5 5 5 5 6 6 7 7 7 7 7 7 7 7 7 8 8 7 7 8 8 9 10 10 10 10 11 13 13 14 13 15 16 15 16 17 16 17 19 19 16 18 17 16 15 16 15 15 15 15 16 16
3 4 4 4 4 5 5 6 6 7 7 7 7 6 6 7 7 9 11 9 8 10 9 9 8 8 9 9 9 12 13 12 13 11 13 15 15 16 18 16 17 17 16 16 16 15 14 14 14 16 15 15 16 16
3 3 3 4 4 4 4 5 6 7 7 7 6 6 7 6 7 8 12 9 8 9 12 11 11 12 11 10 10 10 10 9 10 11 15 16 16 13 15 14 15 15 15 16 16 14 14 13 13 12 14 15 15 16
3 3 3 3 4 4 4 5 6 6 6 7 7 7 7 6 7 10 12 11 8 9 13 13 10 10 11 11 11 11 11 10 10 13 14 14 14 14 15 16 16 14 14 15 15 12 13 12 14 13 14 14 15 16
3 3 3 3 4 4 4 4 5 6 6 7 7 7 7 6 7 12 15 8 8 8 11 14 10 10 11 11 10 11 11 10 10 13 14 13 12 13 16 18 13 13 13 12 11 13 13 13 13 14 14 14 15 15
2 3 3 3 4 4 4 4 5 6 6 7 7 7 7 6 11 14 13 9 7 7 12 14 15 12 13 11 12 12 10 10 10 12 12 12 12 13 20 15 12 12 11 12 13 14 13 13 12 14 14 15 13 16
2 2 3 3 3 4 4 4 4 5 5 6 7 7 7 7 9 13 11 7 7 9 10 14 13 14 13 15 14 11 12 11 11 12 13 13 14 15 17 14 12 11 10 9 11 12 11 14 14 14 15 15 16 16
2 2 2 3 3 3 3 4 4 4 5 6 7 7 10 12 14 13 7 6 8 9 14 14 14 15 13 16 15 14 13 15 12 13 13 12 15 16 13 14 13 11 11 10 9 10 13 14 13 14 15 16 16 16
2 2 2 2 3 3 3 3 4 4 5 6 10 12 16 13 7 6 9 11 11 12 11 14 11 13 14 16 18 15 15 15 15 14 14 16 15 10 11 13 12 11 10 10 12 13 14 15 14 13 15 14 14 15
2 2 2 2 3 3 3 3 4 5 7 11 12 14 10 7 9 11 14 15 14 15 13 12 11 13 12 14 16 15 14 13 15 15 15 16 17 12 9 10 10 10 11 11 11 9 10 11 11 13 15 14 14 15
2 2 2 2 3 3 3 4 5 9 10 10 11 10 12 14 13 15 16 16 16 18 14 12 11 10 12 12 14 12 13 13 15 14 15 18 15 12 11 10 9 9 9 9 9 11 10 11 12 13 14 14 14 14
1 1 2 2 3 3 3 4 5 7 7 11 14 17 19 20 19 21 21 16 15 13 11 10 13 12 13 12 11 12 14 15 12 15 17 17 14 12 13 12 12 11 10 11 11 11 11 11 12 13 13 13 14 15
1 1 2 3 3 3 3 4 5 7 11 16 19 21 21 21 19 18 18 16 11 10 10 9 12 13 12 12 12 13 14 13 16 16 17 15 13 13 14 14 14 14 13 13 12 12 12 11 11 12 13 14 14 15
2 2 2 3 3 3 4 4 5 9 13 18 21 24 22 18 17 16 12 13 10 9 9 11 11 11 13 13 12 13 14 16 16 17 15 12 13 13 13 13 14 15 14 14 14 13 13 12 13 12 13 14 14 15
1 2 3 3 3 3 4 5 8 10 15 19 25 23 19 18 18 16 14 16 12 11 9 9 11 13 13 13 14 15 15 17 15 11 11 11 13 12 12 13 13 14 14 15 14 14 13 13 13 13 15 15 15 15
2 6 3 3 3 4 5 9 11 16 18 19 23 18 18 17 17 17 14 13 12 13 13 11 13 13 14 13 13 13 13 11 10 10 10 10 11 11 11 11 12 13 14 14 14 14 15 15 15 15 15 16 16 16
6 3 3 3 5 6 10 12 16 20 22 23 19 19 17 16 16 15 14 12 13 16 12 15 12 15 16 16 13 10 10 9 9 10 10 11 11 10 9 10 10 12 13 14 14 14 14 15 16 16 16 16 17 17
4 4 4 5 8 11 13 14 16 23 23 20 19 18 16 16 15 14 13 12 13 14 15 15 19 17 16 14 10 10 9 9 10 10 11 10 10 10 10 10 10 11 12 13 14 14 15 15 15 16 17 17 17 18
3 4 5 5 8 13 16 15 17 20 20 18 17 17 17 17 15 14 14 14 14 15 17 18 17 15 13 11 8 9 9 10 11 11 11 11 10 10 10 10 10 11 11 11 12 12 14 15 15 16 17 17 18 18
6 5 6 8 11 13 14 16 18 20 20 17 17 16 18 17 17 16 16 15 18 18 17 15 16 13 12 11 10 9 9 10 10 10 10 11 10 10 10 10 10 10 11 12 12 13 13 15 15 16 16 17 17 17
8 7 10 10 13 14 15 17 16 18 18 18 14 16 18 17 16 16 15 15 15 13 13 13 13 12 12 12 11 11 10 10 10 10 8 9 11 11 10 10 10 11 11 11 12 13 13 14 15 16 17 17 16 17
6 8 12 13 16 15 17 15 16 16 20 22 18 20 21 19 16 14 15 14 13 12 11 10 10 10 11 10 11 11 10 10 11 10 10 10 10 10 10 10 10 11 11 11 11 12 13 12 13 14 16 16 17 17
7 12 14 16 16 18 15 18 23 24 24 24 23 23 22 19 18 16 15 14 12 12 12 11 11 12 12 12 12 11 10 10 10 10 10 11 11 10 10 10 10 10 10 11 11 11 11 13 12 14 15 16 17 16
12 14 13 18 21 20 20 19 20 23 25 26 25 24 22 20 21 21 18 15 14 13 12 12 11 10 12 12 12 11 9 9 10 10 9 9 10 10 10 10 10 10 10 11 11 12 12 12 12 14 15 16 16 16
16 16 17 20 21 21 20 21 21 21 20 24 22 20 19 19 21 19 16 14 14 13 13 12 12 12 12 12 11 11 11 9 9 10 10 9 10 11 11 11 12 12 10 11 12 12 12 12 12 13 14 15 14 15
19 21 22 24 20 19 18 16 15 17 20 22 21 21 20 20 21 16 14 13 13 12 11 11 11 12 12 12 11 12 12 12 12 11 11 11 10 10 10 11 12 11 9 10 11 12 12 12 12 13 14 14 15 15
20 20 19 18 18 15 17 17 17 19 18 17 17 21 20 19 18 14 14 12 11 11 11 11 11 12 13 12 12 12 13 13 13 12 13 12 12 11 11 10 9 8 9 10 10 11 11 12 13 13 14 14 15 14
17 16 15 19 18 18 18 18 17 15 14 15 17 18 17 14 13 14 13 12 11 11 12 12 12 12 12 12 12 12 12 13 14 14 14 14 14 13 13 12 11 11 11 10 9 9 10 11 12 12 13 13 14 14
18 17 20 21 21 20 17 15 14 13 14 14 14 15 15 15 14 13 13 12 12 12 11 11 11 13 13 13 13 13 13 12 12 13 13 13 13 12 12 12 12 12 11 11 11 11 9 10 10 11 12 14 15 15
17 18 19 18 20 17 15 14 13 14 16 16 16 15 15 15 14 13 13 12 11 11 12 12 12 12 12 13 13 13 13 11 12 11 11 11 11 11 11 12 12 12 12 11 12 12 12 12 12 12 12 13 14 13
17 17 17 21 20 18 14 15 15 15 16 17 18 17 16 16 17 15 13 12 12 13 11 11 12 12 11 10 10 10 8 10 11 11 11 11 10 10 10 10 11 11 12 12 11 11 11 12 12 12 12 12 13 13
17 15 15 16 19 19 16 16 18 20 20 20 18 16 15 15 16 13 12 10 10 11 11 11 10 10 10 11 11 10 9 10 10 8 7 7 7 8 10 10 11 11 11 11 11 11 12 12 12 12 12 12 12 13